Flag for U.S.A. Weather past 2 weeks in Germantown, Maryland, U.S.A.

Now
16 °F

Clear.


Feels Like: 16 °F
Forecast: 11 / 44 °F
Wind: No wind

Location: Frederick Municipal Airport

Current Time: Mar 6, 2015 at 7:34:44 PM

Latest Report: Mar 6, 2015 at 6:52 PM


Visibility: 10 mi

Pressure: 30.45 "Hg

Humidity: 57%

Dew point: 3 °F

Location of GermantownLocation

Historic Weather in Germantown — Graph

°F

Germantown temperature yesterday

Maximum temperature yesterday: 39 °F (at 12:00 AM)
Minimum temperature yesterday: 19 °F (at 11:25 PM)
Average temperature yesterday: 31 °F

Past Weeks' High & Low Weather Summary

 TemperatureHumidityPressure
High46 °F (Feb 22, 2:49 PM)100% (Feb 22, 1:50 PM)30.89 "Hg (Feb 22, 1:50 PM)
Low0 °F (Feb 24, 5:25 AM)11% (Feb 28, 2:48 PM)29.82 "Hg (Feb 25, 3:00 AM)
Average25 °F59%30.29 "Hg
* Reported Feb 19 5:50 PM — Mar 6 5:50 PM, Germantown, Weather by CustomWeather, © 2015

Note: Actual official high and low records may vary slightly from our data, if they occured in-between our weather recording intervals... More about our weather records

Advertising

Germantown weather history for previous 24 hours

 ConditionsComfort  
Time TempWeatherWind HumidityBarometerVisibility
5:50 PM
Fri, Mar 6
25 °FSunny.No wind33%30.48 "Hg10 mi
4:48 PM27 °FSunny.6 mph28%30.48 "Hg10 mi
3:47 PM27 °FSunny.No wind22%30.50 "Hg10 mi
2:54 PM28 °FSunny.No wind26%30.52 "Hg10 mi
1:48 PM25 °FSunny.No wind33%30.54 "Hg10 mi
12:45 PM23 °FSunny.5 mph36%30.59 "Hg10 mi
11:47 AM21 °FSunny.No wind35%30.61 "Hg10 mi
10:47 AM19 °FSunny.No wind38%30.63 "Hg10 mi
9:54 AM18 °FSunny.6 mph41%30.65 "Hg10 mi
8:47 AM9 °FSunny.No wind72%30.64 "Hg10 mi
7:47 AM3 °FSunny.No wind85%30.62 "Hg10 mi
6:55 AM0 °FSunny.No wind71%30.61 "Hg10 mi
5:25 AM1 °FIce fog.No wind78%30.59 "Hg2 mi
5:05 AM3 °FClear.No wind78%30.57 "Hg10 mi
4:45 AM3 °FClear.No wind78%30.56 "Hg10 mi
4:25 AM5 °FClear.No wind85%30.55 "Hg10 mi
4:05 AM7 °FClear.No wind66%30.53 "Hg10 mi
3:45 AM10 °FClear.3 mph72%30.53 "Hg10 mi
3:25 AM10 °FClear.No wind61%30.52 "Hg10 mi
3:05 AM10 °FClear.7 mph56%30.52 "Hg10 mi
2:45 AM14 °FClear.7 mph52%30.52 "Hg10 mi
2:25 AM14 °FClear.6 mph52%30.53 "Hg10 mi
2:05 AM16 °FClear.3 mph48%30.53 "Hg10 mi
1:45 AM16 °FClear.3 mph48%30.52 "Hg10 mi
1:25 AM16 °FClear.3 mph53%30.51 "Hg10 mi
1:05 AM18 °FClear.5 mph45%30.50 "Hg10 mi
12:45 AM18 °FClear.7 mph49%30.49 "Hg10 mi
12:25 AM18 °FClear.8 mph49%30.49 "Hg10 mi
12:05 AM19 °FClear.13 mph45%30.50 "Hg10 mi
11:45 PM
Thu, Mar 5
19 °FClear.9 mph49%30.49 "Hg10 mi
11:25 PM19 °FClear.9 mph49%30.49 "Hg10 mi
11:05 PM21 °FClear.8 mph45%30.48 "Hg10 mi
10:45 PM21 °FClear.8 mph45%30.48 "Hg10 mi
10:25 PM21 °FClear.10 mph45%30.48 "Hg10 mi
9:45 PM25 °FPassing clouds.8 mph46%30.45 "Hg10 mi
9:25 PM25 °FPassing clouds.8 mph50%30.45 "Hg10 mi
9:05 PM25 °FPassing clouds.9 mph54%30.43 "Hg10 mi
8:45 PM25 °FOvercast.8 mph54%30.43 "Hg10 mi
8:25 PM25 °FOvercast.7 mph54%30.41 "Hg10 mi
8:05 PM25 °FOvercast.5 mph59%30.39 "Hg10 mi
7:45 PM25 °FOvercast.7 mph63%30.39 "Hg10 mi
Weather by CustomWeather, © 2015

See weather overviewHow to use our weather pages